Time,TemperatureF,DewpointF,PressureIn,WindDirection,WindDirectionDegrees,WindSpeedMPH,WindSpeedGustMPH,Humidity,HourlyPrecipIn,Conditions,Clouds,dailyrainin,SoftwareType,DateUTC
2013-03-29 00:06:00,44.6,29.0,30.20,NNW,344,3.0,8.0,55,0.00,,,0.00,weatherlink.com 1.10,2013-03-29 04:06:00,
2013-03-29 00:21:00,44.5,29.0,30.20,North,5,5.0,10.0,55,0.00,,,0.00,weatherlink.com 1.10,2013-03-29 04:21:00,
2013-03-29 00:36:00,44.3,29.0,30.21,NNW,339,5.0,8.0,55,0.00,,,0.00,weatherlink.com 1.10,2013-03-29 04:36:00,
2013-03-29 00:51:00,44.3,29.0,30.21,NNW,329,2.0,7.0,55,0.00,,,0.00,weatherlink.com 1.10,2013-03-29 04:51:00,
2013-03-29 01:06:00,44.3,29.0,30.21,NW,310,5.0,8.0,55,0.00,,,0.00,weatherlink.com 1.10,2013-03-29 05:06:00,
2013-03-29 01:21:00,44.3,29.0,30.21,NNW,336,5.0,8.0,55,0.00,,,0.00,weatherlink.com 1.10,2013-03-29 05:21:00,
2013-03-29 01:52:00,44.3,29.0,30.21,NNW,338,3.0,9.0,56,0.00,,,0.00,weatherlink.com 1.10,2013-03-29 05:52:00,
2013-03-29 02:06:00,44.2,29.0,30.21,NNW,340,3.0,9.0,56,0.00,,,0.00,weatherlink.com 1.10,2013-03-29 06:06:00,
2013-03-29 02:22:00,44.2,30.0,30.21,NNW,327,3.0,9.0,57,0.00,,,0.00,weatherlink.com 1.10,2013-03-29 06:22:00,
2013-03-29 02:36:00,44.2,29.0,30.21,NNW,332,4.0,10.0,56,0.00,,,0.00,weatherlink.com 1.10,2013-03-29 06:36:00,
2013-03-29 02:51:00,44.1,29.0,30.21,NNW,341,3.0,8.0,55,0.00,,,0.00,weatherlink.com 1.10,2013-03-29 06:51:00,
2013-03-29 03:06:00,43.9,29.0,30.21,NW,319,5.0,11.0,56,0.00,,,0.00,weatherlink.com 1.10,2013-03-29 07:06:00,
2013-03-29 03:21:00,43.8,28.0,30.21,NW,321,3.0,9.0,54,0.00,,,0.00,weatherlink.com 1.10,2013-03-29 07:21:00,
2013-03-29 03:36:00,43.5,28.0,30.20,North,350,7.0,7.0,55,0.00,,,0.00,weatherlink.com 1.10,2013-03-29 07:36:00,
2013-03-29 03:51:00,43.2,28.0,30.20,NNW,327,3.0,8.0,55,0.00,,,0.00,weatherlink.com 1.10,2013-03-29 07:51:00,
2013-03-29 04:06:00,42.9,28.0,30.20,North,355,7.0,9.0,55,0.00,,,0.00,weatherlink.com 1.10,2013-03-29 08:06:00,
2013-03-29 04:36:00,42.6,27.0,30.20,NNW,337,5.0,8.0,55,0.00,,,0.00,weatherlink.com 1.10,2013-03-29 08:36:00,
2013-03-29 04:52:00,42.5,28.0,30.20,NW,324,5.0,7.0,56,0.00,,,0.00,weatherlink.com 1.10,2013-03-29 08:52:00,
2013-03-29 05:21:00,42.3,27.0,30.20,NNW,346,4.0,8.0,55,0.00,,,0.00,weatherlink.com 1.10,2013-03-29 09:21:00,
2013-03-29 05:36:00,42.3,27.0,30.20,NNW,329,5.0,7.0,54,0.00,,,0.00,weatherlink.com 1.10,2013-03-29 09:36:00,
2013-03-29 05:52:00,42.3,26.0,30.21,NNW,335,5.0,8.0,53,0.00,,,0.00,weatherlink.com 1.10,2013-03-29 09:52:00,
2013-03-29 06:07:00,42.3,26.0,30.21,NNW,342,3.0,7.0,53,0.00,,,0.00,weatherlink.com 1.10,2013-03-29 10:07:00,
2013-03-29 06:22:00,42.1,25.0,30.21,NW,323,0.0,5.0,52,0.00,,,0.00,weatherlink.com 1.10,2013-03-29 10:22:00,
2013-03-29 06:37:00,41.9,25.0,30.22,NNW,328,2.0,5.0,52,0.00,,,0.00,weatherlink.com 1.10,2013-03-29 10:37:00,
2013-03-29 06:52:00,42.2,25.0,30.22,NNW,328,4.0,5.0,51,0.00,,,0.00,weatherlink.com 1.10,2013-03-29 10:52:00,
2013-03-29 07:07:00,42.6,25.0,30.22,NNW,330,4.0,8.0,50,0.00,,,0.00,weatherlink.com 1.10,2013-03-29 11:07:00,
2013-03-29 07:37:00,43.5,25.0,30.23,North,355,3.0,6.0,49,0.00,,,0.00,weatherlink.com 1.10,2013-03-29 11:37:00,
2013-03-29 07:52:00,43.9,25.0,30.23,NW,325,2.0,7.0,47,0.00,,,0.00,weatherlink.com 1.10,2013-03-29 11:52:00,
2013-03-29 08:07:00,44.2,24.0,30.23,NNW,336,7.0,11.0,45,0.00,,,0.00,weatherlink.com 1.10,2013-03-29 12:07:00,
2013-03-29 08:22:00,43.9,25.0,30.23,WNW,302,5.0,8.0,48,0.00,,,0.00,weatherlink.com 1.10,2013-03-29 12:22:00,
2013-03-29 08:37:00,43.9,24.0,30.23,NW,320,4.0,10.0,45,0.00,,,0.00,weatherlink.com 1.10,2013-03-29 12:37:00,
2013-03-29 08:52:00,44.9,26.0,30.24,NW,309,8.0,10.0,47,0.00,,,0.00,weatherlink.com 1.10,2013-03-29 12:52:00,
2013-03-29 09:07:00,45.4,26.0,30.24,NNW,329,9.0,12.0,46,0.00,,,0.00,weatherlink.com 1.10,2013-03-29 13:07:00,
2013-03-29 09:22:00,45.2,25.0,30.24,NNW,336,6.0,17.0,46,0.00,,,0.00,weatherlink.com 1.10,2013-03-29 13:22:00,
2013-03-29 09:37:00,45.4,25.0,30.24,NNW,327,7.0,13.0,45,0.00,,,0.00,weatherlink.com 1.10,2013-03-29 13:37:00,
2013-03-29 09:52:00,46.1,25.0,30.23,North,5,9.0,16.0,44,0.00,,,0.00,weatherlink.com 1.10,2013-03-29 13:52:00,
2013-03-29 10:07:00,45.8,26.0,30.23,North,5,8.0,14.0,46,0.00,,,0.00,weatherlink.com 1.10,2013-03-29 14:07:00,
2013-03-29 10:22:00,46.7,26.0,30.23,North,351,7.0,14.0,44,0.00,,,0.00,weatherlink.com 1.10,2013-03-29 14:22:00,
2013-03-29 10:37:00,46.5,27.0,30.23,North,5,7.0,13.0,46,0.00,,,0.00,weatherlink.com 1.10,2013-03-29 14:37:00,
2013-03-29 10:52:00,47.0,25.0,30.23,NNE,22,8.0,16.0,42,0.00,,,0.00,weatherlink.com 1.10,2013-03-29 14:52:00,
2013-03-29 11:07:00,47.3,25.0,30.22,North,350,10.0,13.0,42,0.00,,,0.00,weatherlink.com 1.10,2013-03-29 15:07:00,
2013-03-29 11:22:00,48.0,27.0,30.22,NNW,343,7.0,17.0,44,0.00,,,0.00,weatherlink.com 1.10,2013-03-29 15:22:00,
2013-03-29 11:37:00,48.2,26.0,30.22,North,11,9.0,11.0,43,0.00,,,0.00,weatherlink.com 1.10,2013-03-29 15:37:00,
2013-03-29 11:52:00,49.1,26.0,30.21,NNE,13,17.0,21.0,41,0.00,,,0.00,weatherlink.com 1.10,2013-03-29 15:52:00,
2013-03-29 12:07:00,49.8,27.0,30.20,WNW,301,6.0,13.0,42,0.00,,,0.00,weatherlink.com 1.10,2013-03-29 16:07:00,
2013-03-29 12:22:00,49.8,27.0,30.20,NE,47,6.0,15.0,41,0.00,,,0.00,weatherlink.com 1.10,2013-03-29 16:22:00,
2013-03-29 12:37:00,49.9,27.0,30.19,NE,38,6.0,15.0,41,0.00,,,0.00,weatherlink.com 1.10,2013-03-29 16:37:00,
2013-03-29 12:52:00,50.8,28.0,30.18,NNE,22,12.0,17.0,41,0.00,,,0.00,weatherlink.com 1.10,2013-03-29 16:52:00,
2013-03-29 13:07:00,51.6,26.0,30.18,NNW,331,12.0,17.0,37,0.00,,,0.00,weatherlink.com 1.10,2013-03-29 17:07:00,
2013-03-29 13:23:00,51.6,26.0,30.17,North,9,8.0,12.0,37,0.00,,,0.00,weatherlink.com 1.10,2013-03-29 17:23:00,
2013-03-29 13:38:00,51.6,26.0,30.17,North,355,7.0,17.0,37,0.00,,,0.00,weatherlink.com 1.10,2013-03-29 17:38:00,
2013-03-29 13:53:00,51.9,26.0,30.17,NNW,339,10.0,17.0,37,0.00,,,0.00,weatherlink.com 1.10,2013-03-29 17:53:00,
2013-03-29 14:08:00,52.2,28.0,30.17,North,355,4.0,12.0,39,0.00,,,0.00,weatherlink.com 1.10,2013-03-29 18:08:00,
2013-03-29 14:23:00,52.0,26.0,30.16,North,355,5.0,12.0,36,0.00,,,0.00,weatherlink.com 1.10,2013-03-29 18:23:00,
2013-03-29 14:38:00,52.3,26.0,30.16,North,351,7.0,12.0,36,0.00,,,0.00,weatherlink.com 1.10,2013-03-29 18:38:00,
2013-03-29 14:53:00,52.8,25.0,30.15,NNW,335,7.0,19.0,34,0.00,,,0.00,weatherlink.com 1.10,2013-03-29 18:53:00,
2013-03-29 15:08:00,52.9,26.0,30.15,North,350,6.0,16.0,36,0.00,,,0.00,weatherlink.com 1.10,2013-03-29 19:08:00,
2013-03-29 15:23:00,53.3,25.0,30.14,North,350,6.0,15.0,34,0.00,,,0.00,weatherlink.com 1.10,2013-03-29 19:23:00,
2013-03-29 15:38:00,53.1,25.0,30.14,North,10,12.0,14.0,34,0.00,,,0.00,weatherlink.com 1.10,2013-03-29 19:38:00,
2013-03-29 15:53:00,53.5,23.0,30.14,NNW,342,9.0,16.0,31,0.00,,,0.00,weatherlink.com 1.10,2013-03-29 19:53:00,
2013-03-29 16:08:00,53.6,23.0,30.14,NW,313,7.0,14.0,31,0.00,,,0.00,weatherlink.com 1.10,2013-03-29 20:08:00,
2013-03-29 16:23:00,53.8,24.0,30.13,North,360,7.0,14.0,31,0.00,,,0.00,weatherlink.com 1.10,2013-03-29 20:23:00,
2013-03-29 16:38:00,53.9,24.0,30.13,NNE,12,5.0,12.0,31,0.00,,,0.00,weatherlink.com 1.10,2013-03-29 20:38:00,
2013-03-29 16:53:00,53.5,23.0,30.13,North,355,11.0,18.0,31,0.00,,,0.00,weatherlink.com 1.10,2013-03-29 20:53:00,
2013-03-29 17:08:00,53.9,24.0,30.13,WNW,301,6.0,15.0,32,0.00,,,0.00,weatherlink.com 1.10,2013-03-29 21:08:00,
2013-03-29 17:23:00,53.3,25.0,30.13,NNE,18,10.0,15.0,34,0.00,,,0.00,weatherlink.com 1.10,2013-03-29 21:23:00,
2013-03-29 17:38:00,54.1,27.0,30.13,NW,325,6.0,15.0,35,0.00,,,0.00,weatherlink.com 1.10,2013-03-29 21:38:00,
2013-03-29 17:53:00,53.8,24.0,30.13,NNW,342,10.0,15.0,31,0.00,,,0.00,weatherlink.com 1.10,2013-03-29 21:53:00,
2013-03-29 18:08:00,54.1,25.0,30.13,NNW,336,9.0,15.0,32,0.00,,,0.00,weatherlink.com 1.10,2013-03-29 22:08:00,
2013-03-29 18:23:00,54.1,25.0,30.13,North,355,11.0,13.0,33,0.00,,,0.00,weatherlink.com 1.10,2013-03-29 22:23:00,
2013-03-29 18:38:00,53.6,26.0,30.13,North,5,6.0,12.0,35,0.00,,,0.00,weatherlink.com 1.10,2013-03-29 22:38:00,
2013-03-29 18:53:00,53.8,26.0,30.14,NNE,27,5.0,9.0,34,0.00,,,0.00,weatherlink.com 1.10,2013-03-29 22:53:00,
2013-03-29 19:08:00,52.9,30.0,30.14,NNE,29,4.0,6.0,41,0.00,,,0.00,weatherlink.com 1.10,2013-03-29 23:08:00,
2013-03-29 19:23:00,52.5,27.0,30.14,North,355,0.0,5.0,37,0.00,,,0.00,weatherlink.com 1.10,2013-03-29 23:23:00,
2013-03-29 19:38:00,52.0,27.0,30.15,North,355,0.0,2.0,38,0.00,,,0.00,weatherlink.com 1.10,2013-03-29 23:38:00,
2013-03-29 19:53:00,51.3,26.0,30.15,North,355,0.0,1.0,38,0.00,,,0.00,weatherlink.com 1.10,2013-03-29 23:53:00,
2013-03-29 20:08:00,50.1,27.0,30.15,North,355,0.0,0.0,41,0.00,,,0.00,weatherlink.com 1.10,2013-03-30 00:08:00,
2013-03-29 20:23:00,48.3,29.0,30.16,North,355,0.0,0.0,47,0.00,,,0.00,weatherlink.com 1.10,2013-03-30 00:23:00,
2013-03-29 20:38:00,47.4,29.0,30.16,North,355,0.0,0.0,50,0.00,,,0.00,weatherlink.com 1.10,2013-03-30 00:38:00,
2013-03-29 20:53:00,46.5,32.0,30.16,North,355,0.0,0.0,58,0.00,,,0.00,weatherlink.com 1.10,2013-03-30 00:53:00,
2013-03-29 21:08:00,45.7,32.0,30.17,North,355,0.0,0.0,59,0.00,,,0.00,weatherlink.com 1.10,2013-03-30 01:08:00,
2013-03-29 21:23:00,45.4,34.0,30.18,North,355,0.0,0.0,65,0.00,,,0.00,weatherlink.com 1.10,2013-03-30 01:23:00,
2013-03-29 21:38:00,44.8,30.0,30.18,North,355,0.0,1.0,56,0.00,,,0.00,weatherlink.com 1.10,2013-03-30 01:38:00,
2013-03-29 21:53:00,44.6,30.0,30.18,North,355,0.0,0.0,57,0.00,,,0.00,weatherlink.com 1.10,2013-03-30 01:53:00,
2013-03-29 22:08:00,44.1,30.0,30.18,North,355,0.0,0.0,58,0.00,,,0.00,weatherlink.com 1.10,2013-03-30 02:08:00,
2013-03-29 22:23:00,43.6,30.0,30.19,North,355,0.0,1.0,59,0.00,,,0.00,weatherlink.com 1.10,2013-03-30 02:23:00,
2013-03-29 22:38:00,43.6,30.0,30.18,North,355,0.0,0.0,60,0.00,,,0.00,weatherlink.com 1.10,2013-03-30 02:38:00,
2013-03-29 22:53:00,43.2,30.0,30.19,North,355,0.0,1.0,61,0.00,,,0.00,weatherlink.com 1.10,2013-03-30 02:53:00,
2013-03-29 23:08:00,42.6,31.0,30.18,North,355,0.0,0.0,63,0.00,,,0.00,weatherlink.com 1.10,2013-03-30 03:08:00,
2013-03-29 23:23:00,41.9,31.0,30.19,North,355,0.0,1.0,65,0.00,,,0.00,weatherlink.com 1.10,2013-03-30 03:23:00,
2013-03-29 23:38:00,41.3,31.0,30.18,North,355,0.0,2.0,68,0.00,,,0.00,weatherlink.com 1.10,2013-03-30 03:38:00,
2013-03-29 23:53:00,41.1,31.0,30.18,North,355,0.0,0.0,68,0.00,,,0.00,weatherlink.com 1.10,2013-03-30 03:53:00,